User: anonymous   Login
Location: Theydon Bois
(51.6750°N, 0.1050°E)
Time: 06:15:30
(UTC+01:00)
Language:

SL-8 Rocket - Orbit

View from above orbital plane
View from above orbital plane
View from above satellite
View from above satellite

Ground track
Ground track

The orbit data is extracted from the following two-line orbital elements,

1 21088U 91006B   18198.61413064 +.00000058 +00000-0 +43608-4 0  9995
2 21088 082.9424 086.2846 0021312 295.2170 126.0576 13.77084139379750
Epoch (UTC): 17 July 2018 14:44:20
Eccentricity: 0.0021312
inclination: 82.9424°
perigee height: 958 km
apogee height: 990 km
right ascension of ascending node: 86.2846°
argument of perigee: 295.2170°
revolutions per day: 13.77084139
mean anomaly at epoch: 126.0576°
orbit number at epoch: 37975

The dashed part of the orbit path shows where the satellite is in the earth's shadow,  

DLR